Weather observations for the past three days for
Cotulla, Cotulla-La Salle County Airport
| Date | Time (cdt) | Wind (mph) | Vis. (mi.) | Weather | Sky Cond. | Temperature (ºF) | Relative Humidity | Wind Chill (°F) | Heat Index (°F) | Pressure | Precipitation (in) | ||||||
|---|---|---|---|---|---|---|---|---|---|---|---|---|---|---|---|---|---|
| Air | Dwpt | 6 hour | altimeter (in) | sea level (mb) | 1 hr | 3 hr | 6 hr | ||||||||||
| Max. | Min. | ||||||||||||||||
| 10 | 02:53 | S 8 | 10.00 | Fair | CLR | 75 | 66.9 | 76% | 76 | 29.83 | 1009.3 | ||||||
| 10 | 01:53 | SE 7 | 10.00 | Fair | CLR | 75.9 | 66 | 72% | 77 | 29.85 | 1009.9 | ||||||
| 10 | 00:53 | SE 8 | 10.00 | Fair | CLR | 79 | 66 | 93.9 | 79 | 65% | 81 | 29.85 | 1009.9 | ||||
| 09 | 23:53 | S 8 | 10.00 | Fair | CLR | 81 | 66.9 | 62% | 83 | 29.84 | 1009.5 | ||||||
| 09 | 22:53 | S 12 G 20 | 10.00 | Fair | CLR | 84 | 64.9 | 53% | 86 | 29.82 | 1009.0 | ||||||
| 09 | 21:53 | SE 9 | 10.00 | Fair | CLR | 86 | 63 | 46% | 87 | 29.8 | 1008.2 | ||||||
| 09 | 20:53 | NE 6 | 10.00 | Fair | CLR | 87.1 | 61 | 42% | 87 | 29.76 | 1006.8 | ||||||
| 09 | 19:53 | E 7 | 10.00 | Fair | CLR | 91.9 | 60.1 | 34% | 92 | 29.73 | 1006.0 | ||||||
| 09 | 18:53 | E 8 | 10.00 | Partly Cloudy | SCT080 | 93.9 | 61 | 95 | 87.1 | 33% | 94 | 29.73 | 1005.9 | ||||
| 09 | 17:53 | NW 6 | 10.00 | Fair | CLR | 93.9 | 61 | 33% | 94 | 29.73 | 1006.0 | ||||||
| 09 | 16:53 | Vrbl 3 | 10.00 | Fair | CLR | 93 | 62.1 | 36% | 94 | 29.74 | 1006.1 | ||||||
| 09 | 15:53 | Vrbl 7 | 10.00 | Fair | CLR | 93 | 62.1 | 36% | 94 | 29.76 | 1007.0 | ||||||
| 09 | 14:53 | W 7 | 10.00 | Fair | CLR | 91 | 63 | 39% | 92 | 29.79 | 1007.8 | ||||||
| 09 | 13:53 | Vrbl 6 | 10.00 | Fair | CLR | 90 | 63 | 41% | 91 | 29.81 | 1008.6 | ||||||
| 09 | 12:53 | W 6 | 10.00 | Fair | CLR | 87.1 | 64 | 87.1 | 73.9 | 46% | 88 | 29.84 | 1009.6 | ||||
| 09 | 11:53 | Vrbl 3 | 10.00 | Fair | CLR | 84.9 | 64.9 | 51% | 87 | 29.86 | 1010.3 | ||||||
| 09 | 10:53 | Calm | 10.00 | Fair | CLR | 82 | 66 | 58% | 84 | 29.87 | 1010.8 | ||||||
| 09 | 09:53 | SE 8 | 10.00 | Fair | CLR | 80.1 | 66.9 | 64% | 82 | 29.88 | 1010.9 | ||||||
| 09 | 08:53 | SE 8 | 10.00 | Fair | CLR | 78.1 | 66 | 67% | 80 | 29.87 | 1010.6 | ||||||
| 09 | 07:53 | S 3 | 10.00 | Partly Cloudy | FEW009 SCT028 | 73.9 | 69.1 | 85% | 29.85 | 1010.1 | |||||||
| 09 | 06:53 | SE 5 | 5.00 | Fog/Mist | OVC011 | 75 | 73 | 75.9 | 73.9 | 94% | 73 | 29.84 | 1009.5 | ||||
| 09 | 05:53 | NE 5 | 6.00 | Fog/Mist | OVC008 | 75 | 72 | 90% | 74 | 29.81 | 1008.8 | ||||||
| 09 | 04:53 | NE 5 | 6.00 | Fog/Mist | OVC008 | 75 | 72 | 90% | 74 | 29.8 | 1008.3 | ||||||
| 09 | 03:53 | SE 10 | 6.00 | Fog/Mist | CLR | 75 | 72 | 90% | 74 | 29.75 | 1006.7 | ||||||
| 09 | 02:53 | SE 10 | 7.00 | Mostly Cloudy | FEW080 BKN100 | 75 | 72 | 90% | 74 | 29.76 | 1006.8 | ||||||
| 09 | 01:53 | E 6 | 9.00 | Partly Cloudy | SCT013 SCT040 | 75.9 | 71.1 | 85% | 76 | 29.83 | 1009.2 | ||||||
| 09 | 00:53 | E 7 | 9.00 | Fair | CLR | 75.9 | 71.1 | 82.9 | 75.9 | 85% | 76 | 29.82 | 1008.9 | ||||
| 08 | 23:53 | NE 9 | 10.00 | Partly Cloudy | FEW036 SCT045 | 75.9 | 70 | 82% | 77 | 29.83 | 1009.3 | ||||||
| 08 | 22:53 | NE 6 | 10.00 | Overcast | OVC023 | 77 | 70 | 79% | 79 | 29.81 | 1008.8 | ||||||
| 08 | 21:53 | E 9 | 10.00 | A Few Clouds | FEW030 | 78.1 | 70 | 76% | 80 | 29.77 | 1007.2 | ||||||
| 08 | 20:53 | NE 9 | 10.00 | Partly Cloudy | FEW031 SCT043 | 80.1 | 69.1 | 69% | 83 | 29.75 | 1006.7 | ||||||
| 08 | 19:53 | E 9 | 10.00 | A Few Clouds | FEW033 FEW043 | 82 | 69.1 | 65% | 85 | 29.74 | 1006.2 | ||||||
| 08 | 18:53 | E 9 | 10.00 | A Few Clouds | FEW033 FEW045 | 82.9 | 69.1 | 84.9 | 75 | 63% | 87 | 29.73 | 1006.1 | ||||
| 08 | 17:53 | NE 12 | 10.00 | Mostly Cloudy | BKN034 BKN042 | 82.9 | 68 | 61% | 86 | 29.73 | 1006.1 | ||||||
| 08 | 16:53 | E 5 | 10.00 | Mostly Cloudy | BKN031 BKN039 | 82 | 68 | 63% | 85 | 29.75 | 1006.7 | ||||||
| 08 | 15:53 | SE 7 | 10.00 | Overcast | OVC032 | 80.1 | 66.9 | 64% | 82 | 29.77 | 1007.5 | ||||||
| 08 | 14:53 | E 9 | 10.00 | Overcast | OVC043 | 80.1 | 66.9 | 64% | 82 | 29.8 | 1008.3 | ||||||
| 08 | 13:53 | Vrbl 3 | 10.00 | Mostly Cloudy | SCT021 BKN038 | 77 | 64.9 | 66% | 79 | 29.82 | 1009.1 | ||||||
| 08 | 12:53 | E 7 | 10.00 | Partly Cloudy | SCT017 | 75 | 64 | 75 | 66 | 69% | 77 | 29.85 | 1010.1 | ||||
| 08 | 11:53 | E 7 | 10.00 | Overcast | OVC016 | 73 | 62.1 | 69% | 29.88 | 1011.2 | |||||||
| 08 | 10:53 | NE 6 | 10.00 | Overcast | OVC013 | 69.1 | 60.1 | 73% | 29.9 | 1012.0 | |||||||
| 08 | 09:53 | NE 6 | 10.00 | Overcast | OVC013 | 66.9 | 57.9 | 73% | 29.9 | 1011.8 | |||||||
| 08 | 08:53 | NE 7 | 10.00 | Overcast | OVC014 | 66 | 57.9 | 75% | 29.93 | 1012.7 | |||||||
| 08 | 07:53 | NE 8 | 10.00 | Overcast | OVC012 | 66 | 59 | 78% | 29.91 | 1012.1 | |||||||
| 08 | 06:53 | NE 5 | 10.00 | Overcast | OVC011 | 66.9 | 60.1 | 69.1 | 66 | 79% | 29.92 | 1012.6 | |||||
| 08 | 05:53 | NE 8 | 10.00 | Overcast | OVC017 | 66 | 60.1 | 81% | 29.9 | 1011.9 | |||||||
| 08 | 04:53 | NE 6 | 10.00 | Overcast | OVC015 | 66.9 | 60.1 | 79% | 29.9 | 1012.0 | |||||||
| 08 | 03:53 | E 6 | 10.00 | Overcast | OVC017 | 68 | 57.9 | 70% | 29.9 | 1012.0 | |||||||
| 08 | 02:53 | E 6 | 10.00 | Overcast | OVC020 | 68 | 57.9 | 70% | 29.93 | 1012.8 | |||||||
| 08 | 01:53 | E 3 | 10.00 | Overcast | OVC020 | 69.1 | 57.9 | 68% | 29.95 | 1013.4 | |||||||
| 08 | 00:53 | E 8 | 10.00 | Overcast | OVC019 | 69.1 | 57 | 73 | 69.1 | 66% | 29.95 | 1013.6 | |||||
| 07 | 23:53 | NE 6 | 10.00 | Overcast | OVC020 | 69.1 | 57.9 | 68% | 29.94 | 1013.4 | |||||||
| 07 | 22:53 | NE 3 | 10.00 | Overcast | OVC022 | 70 | 57.9 | 66% | 29.97 | 1014.2 | |||||||
| 07 | 21:53 | NE 6 | 10.00 | Overcast | OVC022 | 70 | 59 | 68% | 29.94 | 1013.2 | |||||||
| 07 | 20:53 | E 6 | 10.00 | Mostly Cloudy | BKN026 | 71.1 | 59 | 66% | 29.92 | 1012.4 | |||||||
| 07 | 19:53 | E 10 | 10.00 | Mostly Cloudy | BKN022 | 72 | 59 | 64% | 29.92 | 1012.4 | |||||||
| 07 | 18:53 | E 15 | 10.00 | A Few Clouds | FEW023 | 73 | 59 | 75 | 70 | 62% | 29.9 | 1011.8 | |||||
| 07 | 17:53 | NE 12 | 10.00 | Overcast | OVC024 | 73 | 60.1 | 64% | 29.91 | 1012.3 | |||||||
| 07 | 16:53 | NE 10 | 10.00 | Overcast | OVC024 | 73.9 | 61 | 64% | 29.94 | 1013.3 | |||||||
| 07 | 15:53 | NE 8 | 10.00 | Overcast | OVC024 | 73.9 | 61 | 64% | 29.95 | 1013.7 | |||||||
| 07 | 14:53 | NE 10 | 10.00 | Overcast | OVC024 | 73 | 60.1 | 64% | 29.96 | 1014.1 | |||||||
| 07 | 13:53 | NE 14 | 10.00 | Overcast | BKN022 OVC027 | 73 | 60.1 | 64% | 29.97 | 1014.1 | |||||||
| 07 | 12:53 | NE 15 G 23 | 10.00 | Overcast | OVC020 | 70 | 59 | 70 | 66.9 | 68% | 30 | 1015.2 | |||||
| 07 | 11:53 | E 14 G 21 | 10.00 | Overcast | OVC021 | 69.1 | 59 | 70% | 30.02 | 1015.9 | |||||||
| 07 | 10:53 | E 15 G 22 | 10.00 | Overcast | OVC019 | 69.1 | 59 | 70% | 30 | 1015.2 | |||||||
| 07 | 09:53 | NE 9 | 10.00 | Overcast | OVC017 | 69.1 | 59 | 70% | 29.99 | 1014.8 | |||||||
| 07 | 08:53 | NE 14 G 22 | 10.00 | Overcast | OVC016 | 68 | 59 | 73% | 29.98 | 1014.4 | |||||||
| 07 | 07:53 | NE 12 G 21 | 9.00 | Overcast | OVC013 | 68 | 60.1 | 76% | 29.94 | 1013.2 | |||||||
| 07 | 06:53 | NE 10 | 10.00 | Overcast | OVC012 | 68 | 60.1 | 71.1 | 68 | 76% | 29.93 | 1012.8 | |||||
| 07 | 05:53 | NE 12 | 10.00 | Overcast | OVC012 | 68 | 60.1 | 76% | 29.93 | 1012.8 | |||||||
| 07 | 04:53 | NE 12 | 10.00 | Overcast | OVC013 | 69.1 | 60.1 | 73% | 29.91 | 1012.0 | |||||||
| 07 | 03:53 | E 8 G 17 | 10.00 | Overcast | OVC013 | 70 | 61 | 73% | 29.91 | 1012.0 | |||||||
| Date | Time (cdt) | Wind (mph) | Vis. (mi.) | Weather | Sky Cond. | Air | Dwpt | Max. | Min. | Relative Humidity | Wind Chill (°F) | Heat Index (°F) | altimeter (in) | sea level (mb) | 1 hr | 3 hr | 6 hr |
| 6 hour | |||||||||||||||||
| Temperature (ºF) | Pressure | Precipitation (in) | |||||||||||||||